This is the latest recevied weather packets stored in our database for station/object DG8SF-13. If no packets are shown the sender has not sent any weather packets the latest 10 day(s).
| Time | Temp. | Humidity | Pressure | Rain* | Wind** | Luminosity | Snow |
|---|---|---|---|---|---|---|---|
| 1777291113 | 21.67° C | 28% | 1019.8 hPa | 0 mm | - | - | - |
| 1777290803 | 22.78° C | 27% | 1019.8 hPa | 0 mm | - | - | - |
| 1777290488 | 21.11° C | 30% | 1019.9 hPa | 0 mm | - | - | - |
| 1777290179 | 22.22° C | 30% | 1020 hPa | 0 mm | - | - | - |
| 1777289865 | 21.67° C | 30% | 1020.1 hPa | 0 mm | - | - | - |
| 1777289556 | 21.11° C | 30% | 1020.2 hPa | 0 mm | - | - | - |
| 1777289241 | 20.56° C | 31% | 1020.2 hPa | 0 mm | - | - | - |
| 1777288932 | 20° C | 32% | 1020.2 hPa | 0 mm | - | - | - |
| 1777288617 | 20° C | 31% | 1020.3 hPa | 0 mm | - | - | - |
| 1777288307 | 20° C | 32% | 1020.3 hPa | 0 mm | - | - | - |
| 1777287993 | 20.56° C | 32% | 1020.3 hPa | 0 mm | - | - | - |
| 1777287683 | 20° C | 32% | 1020.3 hPa | 0 mm | - | - | - |
| 1777287370 | 20.56° C | 32% | 1020.4 hPa | 0 mm | - | - | - |
| 1777287060 | 20° C | 31% | 1020.5 hPa | 0 mm | - | - | - |
| 1777286746 | 20.56° C | 32% | 1020.5 hPa | 0 mm | - | - | - |
| 1777286435 | 19.44° C | 32% | 1020.6 hPa | 0 mm | - | - | - |
| 1777286121 | 20.56° C | 31% | 1020.6 hPa | 0 mm | - | - | - |
| 1777285809 | 20.56° C | 32% | 1020.7 hPa | 0 mm | - | - | - |
| 1777285497 | 20° C | 31% | 1020.9 hPa | 0 mm | - | - | - |
| 1777285188 | 19.44° C | 33% | 1020.8 hPa | 0 mm | - | - | - |
| 1777284874 | 18.89° C | 32% | 1021 hPa | 0 mm | - | - | - |
| 1777284563 | 19.44° C | 33% | 1021 hPa | 0 mm | - | - | - |
| 1777284249 | 18.89° C | 32% | 1021 hPa | 0 mm | - | - | - |
| 1777283938 | 18.33° C | 32% | 1021 hPa | 0 mm | - | - | - |
| 1777283625 | 18.89° C | 31% | 1021 hPa | 0 mm | - | - | - |
* Rain latest hour (hover to see other rain measurements)
** Current wind speed in m/s (hover to see current wind gust speed)